Regional Weather Roundup
Issued by NWS

Home | Current Version | Previous Version | Graphics & Text | Print | Product List | Glossary On
Versions: 1 2 3 4 5 6 7 8 9 10 11 12 13 14 15 16 17 18 19 20 21 22 23 24 25 26 27 28 29 30 31 32 33 34 35 36 37 38 39 40 41 42 43 44 45 46 47 48 49 50
000
ASUS43 KLOT 191703
RWRIL

ILLINOIS REGIONAL WEATHER ROUNDUP
NATIONAL WEATHER SERVICE CHICAGO/ROMEOVILLE IL
1100 AM CST THU JAN 19 2017

NOTE: "FAIR" INDICATES FEW OR NO CLOUDS BELOW 12,000 FEET WITH NO
SIGNIFICANT WEATHER AND/OR OBSTRUCTIONS TO VISIBILITY.

* THESE STATIONS ARE NOT UNDER NWS QUALITY CONTROL. THEY ALSO MAY NOT
  REPORT WEATHER SUCH AS PRECIPITATION OR FOG.

ILZ001-002-007-009-015-016-024-191800-
NORTHWEST ILLINOIS

CITY           SKY/WX    TMP DP  RH WIND       PRES   REMARKS
MOLINE         CLOUDY    37  34  89 E10       29.90F FOG     WCI  30
STERLING*      CLOUDY    36  35  96 E8        29.93F FOG     WCI  30
SAVANNA*       MOSUNNY   35  35  99 NE5       29.93S FOG     WCI  31
$$

ILZ003-004-008-010-011-017-018-191800-
NORTH CENTRAL ILLINOIS

CITY           SKY/WX    TMP DP  RH WIND       PRES   REMARKS
ROCKFORD       FOG       35  34  96 SE5       29.96F VSB 3/4 WCI  31
FREEPORT*      FOG       32  32  99 E3        29.94F VSB<1/4
ROCHELLE*        N/A     34  34 100 E8        29.94F FOG     WCI  27
DE KALB*       FOG       36  35  99 SE8       29.95F VSB 1   WCI  29
$$

ILZ005-006-012>014-019>023-191800-
NORTHEAST ILLINOIS

CITY           SKY/WX    TMP DP  RH WIND       PRES   REMARKS
CHICAGO-OHARE  CLOUDY    38  35  89 SE7       29.95F FOG     WCI  33
CHICAGO-MIDWAY CLOUDY    38  34  85 E5        29.96F FOG     WCI  34
AURORA         CLOUDY    37  35  92 SE6       29.96F FOG     WCI  32
LANSING*       CLOUDY    38  37  97 SE8       29.97F FOG     WCI  32
JOLIET*        PTSUNNY   39  37  93 SE5       29.97F FOG
WAUKEGAN       FOG       36  36 100 CALM      29.96F VSB 1/2
DUPAGE AIRPORT CLOUDY    38  35  89 SE6       29.94F FOG     WCI  33
WHEELING       CLOUDY    38  35  89 SE5       29.97F FOG     WCI  34
MORRIS*        CLOUDY    37  36  94 SE3       29.96S FOG
ROMEOVILLE*    PTSUNNY   38  38 100 SE7       29.96F FOG     WCI  32
NORTHERLY ISL    N/A     35  33  92 E5          N/A  WCI  31
$$

LMZ740>746-191800-
SOUTHERN LAKE MICHIGAN

STATION/POSITION SKY/WX   TEMP    WIND        PRES    VSBY  WAVE
                          AIR SEA DIR/SP/G                  HT/PER
                          (F)     (DEG/KT/KT) (MB)    (MI)  (FT/S)
HARRISON CRIB              35     140/ 10/ 10   N/A
BURNHAM HARBOR             35     110/  6       N/A
CALUMET HARBOR             38     100/  4/  5 1014.9F
BURNS HARBOR               38     130/  6/  8 1015.9F
$$

ILZ025>027-034>036-040-047-049-050-058-095>099-191800-
WEST-CENTRAL ILLINOIS

CITY           SKY/WX    TMP DP  RH WIND       PRES   REMARKS
QUINCY         LGT RAIN  42  42 100 S8        29.87F VSB 1
GALESBURG*     CLOUDY    39  38  96 SE5       29.90R FOG
MACOMB*        CLOUDY    37  37  99 SE9       29.92S FOG     WCI  31
JACKSONVILLE*  CLOUDY    44  40  88 SE9       29.89F
PITTSFIELD*    CLOUDY    43  42  98 SE7       29.89F FOG
$$

ILZ028>032-037-038-041>044-048-051>054-059>061-191800-
CENTRAL ILLINOIS

CITY           SKY/WX    TMP DP  RH WIND       PRES   REMARKS
BLOOMINGTON    PTSUNNY   39  37  92 SE10      29.94F FOG     WCI  32
DECATUR        CLOUDY    42  40  92 SE10      29.95S
PEORIA         PTSUNNY   41  37  86 SE6       29.92F
LACON*         PTSUNNY   38  36  94 SE8       29.93S FOG     WCI  32
LINCOLN*       PTSUNNY   42  40  91 SE12      29.93S FOG
SPRINGFIELD    PTSUNNY   45  40  82 SE13      29.92F HAZE
TAYLORVILLE    RAIN      41  39  94 SE9       29.91F
$$

ILZ033-039-045-046-055>057-062-063-191800-
EAST-CENTRAL ILLINOIS

CITY           SKY/WX    TMP DP  RH WIND       PRES   REMARKS
CHAMPAIGN      CLOUDY    41  38  89 SE13      29.96F FOG
MATTOON        CLOUDY    42  38  85 SE13      29.95S
PARIS*         CLOUDY    42  39  92 SE10      29.99R
$$

ILZ079-100>102-191800-
SOUTHWEST ILLINOIS

CITY           SKY/WX    TMP DP  RH WIND       PRES   REMARKS
CAHOKIA*       LGT RAIN  46  42  86 E6        29.88F FOG
SPARTA*        LGT RAIN  44  43  95 E12       29.88F
$$

ILZ064>066-069>071-074>076-080>082-084>086-088>090-092>094-191800-
SOUTH-CENTRAL ILLINOIS

CITY           SKY/WX    TMP DP  RH WIND       PRES   REMARKS
CARBONDALE     CLOUDY    46  46 100 E5        29.88F FOG
CAIRO*         CLOUDY    50  49  99 E5        29.87F
EFFINGHAM*     CLOUDY    43  42  94 E5        29.96F
MARION         LGT RAIN  46  46 100 NE7       29.89F
MT. VERNON     LGT RAIN  44  42  93 NE10      29.92F FOG
CENTRALIA*     LGT RAIN  46  44  93 E9        29.89F
SALEM*         LGT RAIN  46  41  81 E7        29.92F
$$

ILZ067-068-072-073-078-083-087-091-191800-
SOUTHEAST ILLINOIS

CITY           SKY/WX    TMP DP  RH WIND       PRES   REMARKS
LAWRENCEVILLE  CLOUDY    45  41  86 E10       29.97F
FLORA*         LGT RAIN  45  42  90 E8        29.92F
HARRISBURG*    CLOUDY    46  45  95 E7        29.91F
ROBINSON*      CLOUDY    43  39  86 SE7       30.00S
CARMI*         CLOUDY    46  43  89 E9        29.91F
$$

ABBREVIATIONS USED IN REMARKS
   TC - TEMPERATURE IN CELSIUS
  WCI - WIND CHILL INDEX
   HX - HEAT INDEX
  VSB - VISIBILITY
$$




USA.gov is the U.S. government's official web portal to all federal, state and local government web resources and services.